DL1NER Weather Reports


time (UTC)temp
C
wind
direction
speed
KPH
gust
KPH
rain 1hr
cm
rain 24hr
cm
rain mn
cm
humidity
%
barometer
mb
20260508060011 8 297 1.6 8.0 0.00 0.00 0.00 85 1018.0
20260508055011 8 280 1.6 6.4 0.00 0.00 0.00 85 1018.0
20260508054011 8 274 0.0 4.8 0.00 0.00 0.00 86 1017.9
20260508053011 8 273 1.6 6.4 0.00 0.00 0.00 89 1017.8
20260508052011 8 292 3.2 6.4 0.00 0.00 0.00 90 1017.8
20260508051011 8 274 1.6 4.8 0.00 0.00 0.00 91 1017.8
20260508050011 8 274 0.0 1.6 0.00 0.00 0.00 91 1017.6
20260508045011 8 274 1.6 4.8 0.00 0.00 0.00 91 1017.6
20260508044011 8 281 3.2 6.4 0.00 0.00 0.00 91 1017.5
20260508043011 8 285 1.6 6.4 0.00 0.00 0.00 91 1017.5
20260508042011 8 286 0.0 3.2 0.00 0.00 0.00 91 1017.5
20260508041011 8 286 1.6 6.4 0.00 0.00 0.00 91 1017.5
20260508040011 8 286 1.6 4.8 0.00 0.00 0.00 91 1017.3
20260508035011 8 286 3.2 6.4 0.00 0.00 0.00 91 1017.3
20260508034010 8 269 1.6 6.4 0.00 0.00 0.00 91 1017.2
20260508033010 8 254 1.6 8.0 0.00 0.00 0.00 91 1017.2
20260508032010 8 257 0.0 3.2 0.00 0.00 0.00 91 1017.1
20260508031011 8 257 0.0 1.6 0.00 0.00 0.00 92 1017.1
20260508030010 8 257 0.0 3.2 0.00 0.00 0.00 92 1017.2
20260508025010 8 257 0.0 3.2 0.00 0.00 0.00 91 1017.2
20260508024010 7 257 0.0 3.2 0.00 0.00 0.00 90 1017.2
20260508023011 7 257 0.0 4.8 0.00 0.00 0.00 90 1017.2
20260508022010 7 257 0.0 1.6 0.00 0.00 0.00 88 1017.2
20260508021011 7 257 0.0 0.0 0.00 0.00 0.00 83 1017.2
20260508020010 7 257 0.0 0.0 0.00 0.00 0.00 83 1017.2
20260508015010 8 257 0.0 0.0 0.00 0.00 0.00 83 1017.1
20260508014010 8 257 0.0 3.2 0.00 0.00 0.00 83 1017.2
20260508013010 8 257 1.6 4.8 0.00 0.00 0.00 83 1017.2
20260508012010 8 257 0.0 3.2 0.00 0.00 0.00 83 1017.3
20260508011010 8 257 0.0 6.4 0.00 0.00 0.00 83 1017.2
20260508010010 8 256 0.0 0.0 0.00 0.00 0.00 83 1017.3
20260508005010 8 256 0.0 3.2 0.00 0.00 0.00 83 1017.4
20260508004010 8 256 1.6 4.8 0.00 0.00 0.00 83 1017.4
20260508003010 8 255 1.6 4.8 0.00 0.00 0.00 82 1017.5
20260508002010 9 262 0.0 0.0 0.00 0.00 0.00 82 1017.5
20260508001011 9 262 0.0 0.0 0.00 0.00 0.00 82 1017.5
20260508000010 9 262 1.6 4.8 0.00 0.00 0.00 82 1017.5
20260507235010 9 257 1.6 4.8 0.00 0.00 0.00 83 1017.6
20260507234010 9 257 0.0 0.0 0.00 0.00 0.00 83 1017.7
20260507233010 9 257 0.0 1.6 0.00 0.00 0.00 83 1017.6
20260507232009 9 257 1.6 3.2 0.00 0.00 0.00 83 1017.7
20260507231010 9 257 0.0 0.0 0.00 0.00 0.00 83 1017.6
20260507230010 9 257 0.0 0.0 0.00 0.00 0.00 83 1017.6
20260507225010 9 257 0.0 1.6 0.00 0.00 0.00 83 1017.6
20260507223010 9 257 0.0 1.6 0.00 0.00 0.00 82 1017.5
20260507222009 9 257 0.0 0.0 0.00 0.00 0.00 82 1017.4
20260507221010 9 257 0.0 3.2 0.00 0.00 0.00 82 1017.5
20260507220009 9 257 0.0 0.0 0.00 0.23 0.23 81 1017.3
20260507215017 9 257 0.0 0.0 0.00 0.23 0.23 81 1017.3
20260507214009 9 257 0.0 4.8 0.00 0.23 0.23 80 1017.3
20260507213009 9 257 3.2 4.8 0.00 0.23 0.23 80 1017.2
20260507212009 9 258 0.0 3.2 0.00 0.23 0.23 78 1017.1
20260507211009 9 258 0.0 4.8 0.00 0.23 0.23 79 1017.1
20260507210009 9 258 1.6 4.8 0.00 0.23 0.23 78 1017.2
20260507205008 10 258 1.6 4.8 0.00 0.23 0.23 78 1017.1
20260507204008 10 258 1.6 4.8 0.00 0.23 0.23 77 1017.1
20260507203008 10 258 1.6 4.8 0.00 0.23 0.23 77 1016.9
20260507202013 10 258 1.6 4.8 0.00 0.23 0.23 77 1016.9
20260507201013 10 258 1.6 4.8 0.00 0.23 0.23 77 1016.9
20260507200013 10 258 1.6 6.4 0.00 0.23 0.23 77 1016.8
20260507195013 10 261 1.6 4.8 0.00 0.23 0.23 77 1016.8
20260507194013 10 261 0.0 4.8 0.00 0.23 0.23 77 1016.7
20260507193013 10 261 1.6 4.8 0.00 0.23 0.23 77 1016.7
20260507192013 10 261 1.6 4.8 0.00 0.23 0.23 76 1016.7
20260507191013 10 261 1.6 9.7 0.00 0.23 0.23 76 1016.5
20260507190013 10 255 1.6 4.8 0.00 0.23 0.23 76 1016.3
20260507185013 10 255 1.6 11.3 0.00 0.23 0.23 76 1016.3
20260507184013 10 257 3.2 6.4 0.00 0.23 0.23 75 1016.3
20260507183013 10 251 1.6 6.4 0.00 0.23 0.23 76 1016.2
20260507182013 10 250 1.6 6.4 0.00 0.23 0.23 75 1016.0
20260507181013 10 250 3.2 6.4 0.00 0.23 0.23 75 1015.8
20260507180012 10 250 4.8 11.3 0.00 0.23 0.23 74 1015.9
20260507175013 11 253 4.8 11.3 0.00 0.23 0.23 74 1015.9
20260507174013 11 288 4.8 11.3 0.00 0.23 0.23 73 1015.9
20260507173013 11 249 6.4 14.5 0.00 0.23 0.23 73 1015.7
20260507172013 11 251 8.0 14.5 0.00 0.23 0.23 72 1015.7
20260507171012 11 272 6.4 16.1 0.00 0.23 0.23 72 1015.6
20260507170012 11 266 4.8 14.5 0.00 0.23 0.23 72 1015.6
20260507165012 11 265 4.8 11.3 0.00 0.23 0.23 71 1015.6
20260507164013 11 241 6.4 17.7 0.00 0.23 0.23 72 1015.6
20260507163012 11 252 6.4 14.5 0.00 0.23 0.23 71 1015.5
20260507162012 11 280 6.4 14.5 0.00 0.23 0.23 70 1015.5
20260507161012 11 268 6.4 14.5 0.00 0.23 0.23 71 1015.3
20260507160012 11 243 8.0 17.7 0.00 0.23 0.23 69 1015.3
20260507155012 12 263 8.0 20.9 0.00 0.23 0.23 69 1015.2
20260507154012 12 240 4.8 16.1 0.00 0.23 0.23 71 1015.1
20260507153012 12 236 6.4 16.1 0.00 0.23 0.23 71 1015.0
20260507152012 12 271 4.8 16.1 0.00 0.23 0.23 70 1015.0
20260507151012 11 242 3.2 12.9 0.00 0.23 0.23 73 1015.1
20260507150012 11 276 6.4 17.7 0.00 0.23 0.23 71 1015.0
20260507145012 11 267 8.0 14.5 0.00 0.23 0.23 72 1015.1
20260507144012 11 223 6.4 16.1 0.00 0.23 0.23 72 1015.0
20260507143012 12 261 9.7 20.9 0.00 0.23 0.23 70 1015.1
20260507142012 12 242 6.4 19.3 0.00 0.23 0.23 72 1015.0
20260507141012 12 225 4.8 19.3 0.00 0.23 0.23 73 1015.1
20260507140011 11 256 11.3 17.7 0.00 0.23 0.23 71 1015.0
20260507135012 12 245 8.0 20.9 0.00 0.23 0.23 74 1015.0
20260507134012 11 232 4.8 12.9 0.00 0.23 0.23 77 1015.0
20260507133011 11 213 6.4 14.5 0.00 0.23 0.23 80 1015.0
20260507132011 10 250 6.4 14.5 0.00 0.23 0.23 79 1015.0
20260507131011 10 264 9.7 19.3 0.00 0.23 0.23 77 1015.1
20260507130011 10 259 8.0 19.3 0.00 0.23 0.23 76 1014.9
20260507125012 10 233 8.0 19.3 0.00 0.23 0.23 75 1014.9
20260507124011 11 238 11.3 24.1 0.00 0.23 0.23 73 1014.7
20260507123011 11 266 6.4 16.1 0.00 0.23 0.23 74 1014.6
20260507122012 11 250 12.9 25.7 0.00 0.23 0.23 73 1014.5
20260507121011 12 267 8.0 20.9 0.00 0.23 0.23 72 1014.4
20260507120011 11 269 9.7 20.9 0.00 0.23 0.23 73 1014.3
20260507115012 11 230 9.7 22.5 0.00 0.23 0.23 75 1014.3
20260507114011 11 241 8.0 20.9 0.00 0.23 0.23 73 1014.3
20260507113011 11 250 11.3 24.1 0.00 0.23 0.23 73 1014.3
20260507112012 12 285 8.0 22.5 0.00 0.23 0.23 72 1014.1
20260507111011 12 219 8.0 24.1 0.00 0.23 0.23 75 1014.0
20260507110011 12 192 8.0 22.5 0.00 0.23 0.23 74 1013.9
20260507105011 12 215 8.0 17.7 0.00 0.23 0.23 75 1013.9
20260507104010 12 199 8.0 19.3 0.00 0.23 0.23 76 1013.9
20260507103010 12 184 8.0 17.7 0.00 0.23 0.23 80 1013.8
20260507102010 11 229 8.0 17.7 0.03 0.23 0.23 80 1013.7
20260507101011 11 229 8.0 17.7 0.03 0.23 0.23 80 1013.7
20260507100012 11 226 6.4 17.7 0.05 0.23 0.23 83 1013.7
20260507095011 11 250 4.8 17.7 0.05 0.23 0.23 87 1013.6
20260507094011 10 248 6.4 17.7 0.05 0.23 0.23 84 1013.4
20260507093010 10 206 6.4 17.7 0.05 0.23 0.23 84 1013.4
20260507092011 10 255 6.4 14.5 0.03 0.20 0.20 85 1013.3
20260507091011 10 254 4.8 11.3 0.05 0.20 0.20 85 1013.1
20260507090010 11 233 3.2 16.1 0.03 0.18 0.18 87 1013.0
20260507085010 11 202 6.4 17.7 0.05 0.18 0.18 85 1012.7
20260507084010 11 280 6.4 16.1 0.05 0.18 0.18 90 1012.6
20260507083010 10 235 8.0 17.7 0.05 0.18 0.18 89 1012.5
20260507082010 10 228 6.4 14.5 0.05 0.15 0.15 90 1012.4
20260507081010 10 283 3.2 11.3 0.05 0.15 0.15 90 1012.2
20260507080011 10 283 3.2 11.3 0.05 0.15 0.15 90 1012.2
20260507075009 10 261 3.2 8.0 0.05 0.15 0.15 89 1012.1
20260507074010 10 261 4.8 12.9 0.05 0.15 0.15 88 1012.0
20260507073009 10 252 3.2 9.7 0.05 0.13 0.13 88 1011.7
20260507072010 10 252 3.2 9.7 0.05 0.13 0.13 88 1011.7
20260507071010 10 234 4.8 12.9 0.05 0.13 0.13 88 1011.6
20260507070012 10 234 3.2 8.0 0.03 0.10 0.10 89 1011.5
20260507065011 10 250 4.8 12.9 0.03 0.10 0.10 88 1011.5
20260507064009 10 215 4.8 12.9 0.03 0.10 0.10 88 1011.4
20260507063011 10 209 3.2 11.3 0.00 0.08 0.08 88 1011.3
20260507062010 10 244 4.8 11.3 0.00 0.08 0.08 88 1011.2
20260507061010 10 246 4.8 12.9 0.00 0.08 0.08 89 1011.1